Home > Weather > Thusis > Past weeks

Flag for Switzerland Weather for the Past 2 Weeks in Thusis, Graubünden, Switzerland

Now
50 °F

Cool.


Feels Like: 45 °F
Forecast: 35 / 43 °F
Wind: 15 mph from South

Location: Chur

Current Time: Feb 8, 2016 at 2:48:01 PM

Latest Report: Feb 8, 2016 at 2:00 PM


Visibility: N/A

Pressure: 29.78 "Hg (27.31 "Hg at 718m altitude)

Humidity: 61%

Dew point: 37 °F

Location of ThusisLocation

Historic Weather in Thusis — Graph

°F

Thusis Temperature Yesterday

Maximum temperature yesterday: 56 °F (at 1:00 PM)
Minimum temperature yesterday: 39 °F (at 11:00 PM)
Average temperature yesterday: 48 °F

High & Low Weather Summary for the Past Weeks

 TemperatureHumidityPressure
High57 °F (Jan 30, 2:00 PM)98% (Feb 5, 8:00 AM)30.63 "Hg (Feb 5, 8:00 AM)
Low32 °F (Jan 28, 7:00 AM)33% (Jan 30, 3:00 PM)29.68 "Hg (Feb 7, 1:00 PM)
Average42 °F73%30.29 "Hg
* Reported Jan 24 1:00 PM — Feb 8 1:00 PM, Thusis, Weather by CustomWeather, © 2016

Note: Actual official high and low records may vary slightly from our data, if they occured in-between our weather recording intervals... More about our weather records

Advertising

Thusis Weather History for the Previous 24 Hours

 ConditionsComfort  
Time TempWeatherWind HumidityBarometerVisibility
1:00 PM
Mon, Feb 8
48 °FOvercast.17 mph62%29.80 "Hg16 mi
12:00 PM47 °FCool.14 mph62%29.85 "HgN/A
11:00 AM43 °FQuite cool.16 mph72%29.91 "HgN/A
10:00 AM40 °FOvercast.13 mph78%29.93 "Hg16 mi
9:00 AM38 °FChilly.10 mph83%29.96 "HgN/A
8:00 AM36 °FChilly.8 mph88%29.96 "HgN/A
7:00 AM36 °FClear.3 mph89%29.96 "Hg12 mi
6:00 AM36 °FChilly.7 mph89%29.96 "HgN/A
5:00 AM36 °FChilly.6 mph91%29.97 "HgN/A
3:00 AM38 °FChilly.6 mph90%29.99 "HgN/A
2:00 AM38 °FChilly.6 mph91%30.00 "HgN/A
12:00 AM39 °FChilly.1 mph90%30.00 "HgN/A
11:00 PM
Sun, Feb 7
39 °FChilly.3 mph90%30.00 "HgN/A
10:00 PM40 °FDrizzle. Low clouds.6 mph90%29.98 "Hg2 mi
9:00 PM41 °FQuite cool.5 mph90%29.96 "HgN/A
8:00 PM41 °FQuite cool.3 mph89%29.94 "HgN/A
7:00 PM42 °FDrizzle. Low clouds.3 mph86%29.91 "Hg2 mi
6:00 PM43 °FQuite cool.9 mph81%29.88 "HgN/A
5:00 PM46 °FCool.16 mph70%29.82 "HgN/A
4:00 PM52 °FOvercast.10 mph52%29.75 "Hg12 mi
3:00 PM53 °FCool.13 mph48%29.72 "HgN/A
2:00 PM54 °FCool.14 mph43%29.70 "HgN/A
Weather by CustomWeather, © 2016

See weather overviewHow to use our weather pages